Location: Holyhead Bay
(53.3667°N, 4.6667°W)
Time: 09:23:41
(UTC+00:00)

IRIDIUM 33 DEB - Pass Details

Date: 02 October 2021
Orbit: 581 x 601 km, 86.4° (Epoch: 24 October)

Event Time Altitude Azimuth Distance (km) Brightness Sun altitude
Rises 04:45:36 0° 350° (N) 2,847 ? -15.1°
Reaches altitude 10° 04:47:53 10° 343° (NNW) 1,936 ? -14.8°
Maximum altitude 04:51:53 42° 274° (W) 856 ? -14.2°
Drops below altitude 10° 04:55:51 10° 203° (SSW) 1,908 ? -13.6°
Sets 04:58:05 0° 197° (SSW) 2,801 ? -13.3°
